Regional Weather Roundup
Issued by NWS

Home | Current Version | Previous Version | Text Only | Print | Product List | Glossary On
Versions: 1 2 3 4 5 6 7 8 9 10 11 12 13 14 15 16 17 18 19 20 21 22 23 24 25 26 27 28 29 30 31 32 33 34 35 36 37 38 39 40 41 42 43 44 45 46 47 48 49 50
000
ASUS43 KMKX 302021
RWRWI

WISCONSIN REGIONAL WEATHER ROUNDUP
NATIONAL WEATHER SERVICE MILWAUKEE/SULLIVAN WI
300 PM CDT FRI SEP 30 2016

NOTE: "FAIR" INDICATES FEW OR NO CLOUDS BELOW 12,000 FEET WITH NO
SIGNIFICANT WEATHER AND/OR OBSTRUCTIONS TO VISIBILITY.

WIZ001-002-006>008-014>016-023>028-302100-
NORTHWEST WISCONSIN

CITY           SKY/WX    TMP DP  RH WIND       PRES   REMARKS
SUPERIOR ARPT  CLOUDY    55  52  90 NE9G16    30.37F
ASHLAND        CLOUDY    58  54  86 NE14      30.36F
HAYWARD        SUNNY     66  49  54 NE12      30.32F
SIREN          SUNNY     69  50  50 NE8       30.29F
CUMBERLAND     SUNNY     68  46  45 N6        30.28F
RICE LAKE      SUNNY     72  43  35 NE9       30.28F
CHETEK         NOT AVBL
LADYSMITH      SUNNY     72  46  40 NE14      30.29F
EAU CLAIRE     MOSUNNY   73  50  44 NE13      30.24F
MENOMONIE      SUNNY     73  50  43 NE8       30.26F HAZE
NEW RICHMOND   SUNNY     71  47  42 NE10G16   30.27F
OSCEOLA        SUNNY     71  49  45 NE12      30.30F
$$

WIZ003>005-009-010-017-018-302100-
NORTH CENTRAL WISCONSIN

CITY           SKY/WX    TMP DP  RH WIND       PRES   REMARKS
MANITOWISH WTR NOT AVBL
ARBOR VITAE    PTSUNNY   69  52  53 NE8       30.30F
WOODRUFF       PTSUNNY   69  52  53 NE8       30.30F
RHINELANDER    PTSUNNY   67  49  52 NE12      30.29F
EAGLE RIVER    CLOUDY    66  43  42 E9        30.30F
LAND O LAKES   CLOUDY    68  44  41 NE8       30.33F
PHILLIPS       SUNNY     69  50  51 NE14      30.29F
TOMAHAWK       MOSUNNY   68  48  48 NE7       30.28F
MEDFORD        CLOUDY    67  48  50 NE9       30.26F
MERRILL        MOSUNNY   70  52  51 NE10G16   30.26F
$$

WIZ029-030-035-036-043>047-302100-
CENTRAL WISCONSIN

CITY           SKY/WX    TMP DP  RH WIND       PRES   REMARKS
WAUSAU         MOSUNNY   69  52  54 NE13G21   30.24F
MOSINEE        PTSUNNY   66  54  63 E10G17    30.26F
MARSHFIELD     CLOUDY    70  51  51 E10       30.23F
STEVENS POINT  CLOUDY    63  53  72 NE9G18    30.25F
WAUPACA        CLOUDY    63  58  83 NE8       30.23F
WAUTOMA        CLOUDY    59  58  96 NE8       30.22F FOG
WISC RAPIDS    CLOUDY    64  56  75 E13       30.25F
CAMP DOUGLAS   MOSUNNY   61  57  88 NE7       30.22F
$$

WIZ011>013-019>022-031-037>040-048>050-302100-
NORTHEAST WISCONSIN

CITY           SKY/WX    TMP DP  RH WIND       PRES   REMARKS
ANTIGO         MOSUNNY   68  53  58 E14G20    30.27F
SHAWANO        CLOUDY    64  54  69 NE15G21   30.25F
OCONTO         NOT AVBL
STURGEON BAY   CLOUDY    62  57  83 NE15      30.24F
GREEN BAY      CLOUDY    63  59  87 NE17G25   30.23F
MANITOWOC      CLOUDY    63  57  82 NE9       30.20F
APPLETON       CLOUDY    61  59  94 NE14      30.21F
CLINTONVILLE   CLOUDY    63  54  72 NE12      30.24F
OSHKOSH        CLOUDY    61  57  87 NE14      30.20S
$$

WIZ032>034-041-042-053>061-302100-
SOUTHWEST WISCONSIN

CITY           SKY/WX    TMP DP  RH WIND       PRES   REMARKS
LA CROSSE      CLOUDY    68  57  68 CALM      30.21F
SPARTA         CLOUDY    63  57  80 E7        30.24S
VIROQUA        CLOUDY    60  57  89 NE10      30.23S
BOSCOBEL       CLOUDY    63  57  81 NE6       30.19F
PRAIRIE DU CHI CLOUDY    61  55  79 N5        30.19F
PLATTEVILLE    CLOUDY    61  59  93 N12G20    30.17F
$$

WIZ056-057-062-063-064-067-068-302100-
SOUTH CENTRAL WISCONSIN

CITY           SKY/WX    TMP DP  RH WIND       PRES   REMARKS
REEDSBURG      NOT AVBL
BARABOO/DELLS  LGT RAIN  58  57  95 NE7       30.20F
LONE ROCK      CLOUDY    63  57  81 NE12      30.19F
MINERAL POINT  CLOUDY    61  59  94 NE9       30.18F
MADISON        DRIZZLE   62  57  83 NE8       30.17F
MIDDLETON      CLOUDY    62  60  96 NE8       30.18S
WATERTOWN      CLOUDY    61  61  99 NE7       30.16F
MONROE         CLOUDY    63  59  88 N15       30.14F
JANESVILLE     CLOUDY    64  59  82 NE12G17   30.13F
$$

WIZ051-052-058>065-066-070>072-302100-
SOUTHEAST WISCONSIN

CITY           SKY/WX    TMP DP  RH WIND       PRES   REMARKS
MILWAUKEE      CLOUDY    64  59  83 NE14      30.14F
WAUKESHA       CLOUDY    57  55  94 NE14G22   30.17F
MILWAUKEE/TIMM CLOUDY    61  55  82 NE14      30.17F
RACINE         CLOUDY    63  59  87 NE13      30.14F
BURLINGTON     CLOUDY    61  57  87 NE7G20    30.13F
KENOSHA        CLOUDY    63  59  87 NE14      30.13F
FOND DU LAC    CLOUDY    62  58  86 NE9       30.19F
SHEBOYGAN      CLOUDY    61  57  87 NE17      30.19F
WEST BEND      CLOUDY    68  66  94 NE10      30.18S
JUNEAU         CLOUDY    60  56  85 NE12G18   30.19F
$$

LSZ147-162-302100-
LAKE SUPERIOR

STATION/POSITION TIME  TEMP    WIND        PRES    WAVE
                       AIR SEA DIR/SP/G            HT/PER
                 (UTC) (F)     (DEG/KT/KT) (MB)    (FT/S)
W MID LAKE BUOY  1950   55 55   50/ 14/ 16 1028.1F   2/ 4
DEVILS ISLAND    2000   53      30/ 12/ 14 1028.9F
SAXON HARBOR     1940   56     360/  8/  9 1027.8F
$$

LMZ867-665-643>646-302100-
LAKE MICHIGAN

STATION/POSITION TIME  TEMP    WIND        PRES    WAVE
                       AIR SEA DIR/SP/G            HT/PER
                 (UTC) (F)     (DEG/KT/KT) (MB)    (FT/S)
CHAMBERS ISLAND  1900   62      30/ 16/ 19 1024.7F
N MID LAKE BUOY  1950   63 65   40/ 17/ 21 1023.8F   4/ 5
NORTHPORT PIER   1900   63      40/ 13/ 18 1025.1F
SISTER BAY       1908   64      80/ 10/ 16   N/A
KEWAUNEE LAKESHO 2000   63      40/ 13/ 20 1022.6F
SHEBOYGAN LAKESH 2000   60      20/ 14/ 15 1021.9F
PORT WASHINGTON  1940   61      60/ 11/ 16 1022.4F
ATWATER BUOY     2000   58 54   30/ 12/ 16 1020.5F
MILWAUKEE LAKESH 1910   59      30/ 12/ 13   N/A
S MID LAKE BUOY  1950   63 67   50/ 19/ 23 1018.7F   4/ 6
KENOSHA   LAKESH 2000   63      50/ 15/ 18 1019.6F
$$

TC  - TEMPERATURE IN CELSIUS
VSB - VISIBILITY IN STATUTE MILES
WCI - WIND CHILL INDEX
HX  - HEAT INDEX





USA.gov is the U.S. government's official web portal to all federal, state and local government web resources and services.